Austin, Texas, United States (73301)
Lat: 30.27N, Lon: 97.74W
Wx Zone: TXZ192
Local Info
Past Weather Observations for Today

NOTE: This archive is for the closest National Weather Service station to Austin. Information may differ from the station used for current weather conditions.

Click here for Long-term Archive

Time Weather Temperature Dewpoint Humidity Pressure Winds Precip Visibility
18:51
Clear
91°F / 33°C 70°F / 21°C 49% 30.01 in
(1016 mb)
Calm - 10SM
17:51
Clear
93°F / 34°C 68°F / 20°C 44% 30.01 in
(1016 mb)
Calm - 10SM
16:51
Partly Cloudy
93°F / 34°C 70°F / 21°C 47% 30.01 in
(1016 mb)
E 4.6 mph
(E 7 kph)
- 10SM
15:51
Clear
97°F / 36°C 70°F / 21°C 42% 30.01 in
(1016 mb)
E 4.6 mph
(E 7 kph)
- 10SM
14:51
Clear
97°F / 36°C 70°F / 21°C 42% 30.04 in
(1017 mb)
Calm - 10SM
13:51
Clear
91°F / 33°C 68°F / 20°C 46% 30.04 in
(1017 mb)
Variable 3.5 mph
(Variable 6 kph)
- 10SM
12:51
Clear
91°F / 33°C 70°F / 21°C 49% 30.06 in
(1018 mb)
SSE 5.8 mph
(SSE 9 kph)
- 10SM
11:51
Clear
90°F / 32°C 70°F / 21°C 52% 30.06 in
(1018 mb)
Calm - 10SM
10:51
Clear
88°F / 31°C 70°F / 21°C 55% 30.09 in
(1019 mb)
Calm - 10SM
09:51
Clear
84°F / 29°C 73°F / 23°C 70% 30.09 in
(1019 mb)
Calm - 10SM
08:51
Clear
82°F / 28°C 73°F / 23°C 74% 30.09 in
(1019 mb)
S 3.5 mph
(S 6 kph)
- 10SM
08:00
Partly Cloudy
79°F / 26°C 73°F / 23°C 84% 30.09 in
(1019 mb)
SW 4.6 mph
(SW 7 kph)
- 10SM
07:51
Mostly Cloudy
79°F / 26°C 73°F / 23°C 84% 30.09 in
(1019 mb)
Variable 3.5 mph
(Variable 6 kph)
- 10SM
06:51
Mostly Cloudy
79°F / 26°C 73°F / 23°C 84% 30.06 in
(1018 mb)
Variable 3.5 mph
(Variable 6 kph)
- 9SM
06:49
Mostly Cloudy
77°F / 25°C 73°F / 23°C 89% 30.06 in
(1018 mb)
Variable 5.8 mph
(Variable 9 kph)
- 9SM
06:35
Mostly Cloudy
77°F / 25°C 73°F / 23°C 89% 30.06 in
(1018 mb)
S 5.8 mph
(S 9 kph)
- 9SM
06:20
Partly Cloudy
77°F / 25°C 73°F / 23°C 89% 30.06 in
(1018 mb)
Variable 3.5 mph
(Variable 6 kph)
- 8SM
06:02
Mostly Cloudy
75°F / 24°C 73°F / 23°C 94% 30.06 in
(1018 mb)
S 4.6 mph
(S 7 kph)
- 8SM
05:51
Mostly Cloudy
77°F / 25°C 73°F / 23°C 89% 30.06 in
(1018 mb)
S 4.6 mph
(S 7 kph)
- 10SM
05:49
Mostly Cloudy
77°F / 25°C 73°F / 23°C 89% 30.06 in
(1018 mb)
S 4.6 mph
(S 7 kph)
- 10SM
05:32
Partly Cloudy
77°F / 25°C 73°F / 23°C 89% 30.06 in
(1018 mb)
S 3.5 mph
(S 6 kph)
- 10SM
04:51
Clear
75°F / 24°C 73°F / 23°C 94% 30.04 in
(1017 mb)
SSE 3.5 mph
(SSE 6 kph)
- 10SM
03:51
Clear
77°F / 25°C 73°F / 23°C 89% 30.04 in
(1017 mb)
Calm - 10SM
02:51
Clear
79°F / 26°C 73°F / 23°C 84% 30.01 in
(1016 mb)
Variable 3.5 mph
(Variable 6 kph)
- 10SM
01:51
Clear
79°F / 26°C 72°F / 22°C 79% 30.04 in
(1017 mb)
Calm - 10SM
00:51
Clear
81°F / 27°C 72°F / 22°C 74% 30.04 in
(1017 mb)
Calm - 10SM
Time Weather Temperature Dewpoint Humidity Pressure Winds Precip Visibility


Weather for websites

WeatherForYou.com, LLC is not responsible for any damages or problems caused by this service. Current weather conditions are obtained from the closest station including government and personal stations which may have varying degrees of accuracy. Weather forecasts are derived from the NOAA NDFD. Like all things, this site belongs to Jesus Christ... He just trusts me to maintain it. If you have any questions or comments email webmaster@weatherforyou.com

Copyright © 2014, WeatherForYou.com LLC. All rights reserved.